Location: Hochstatterhof
(48.7256°N, 10.3487°E)
Time: 20:55:32
(UTC+00:00)

ATLAS 3B R/B - Pass Details

Date: 26 September 2023
Orbit: 954 x 1241 km, 63.8° (Epoch: 01 December)

Event Time Altitude Azimuth Distance (km) Brightness Sun altitude
Rises 03:45:51 0° 318° (NW) 4,126 5.5 -14.6°
Reaches altitude 10° 03:48:37 10° 315° (NW) 3,182 4.9 -14.1°
Maximum altitude 03:56:12 62° 238° (WSW) 1,382 3.0 -12.9°
Drops below altitude 10° 04:03:48 10° 160° (SSE) 3,188 5.3 -11.7°
Sets 04:06:34 0° 157° (SSE) 4,134 5.9 -11.3°
